Location: Taipo
(41.0000°S, 175.9500°E)
Time: 22:08:16
(UTC+00:00)

Meteor 2-20 - Pass Details

Date: 30 July 2024
Orbit: 937 x 959 km, 82.5° (Epoch: 28 April)

Event Time Altitude Azimuth Distance (km) Brightness Sun altitude
Exits shadow 18:30:14 11° 237° (WSW) 2,615 6.1 -10.5°
Maximum altitude 18:32:34 14° 260° (W) 2,435 5.9 -10.0°
Drops below altitude 10° 18:35:32 10° 289° (WNW) 2,704 6.3 -9.5°
Sets 18:39:22 0° 313° (NW) 3,639 7.2 -8.8°
